ASTRA 2F

Last updated on Sun Dec 21 2025 00:02:54 GMT+0000 (Coordinated Universal Time)

1 38778U 12051A 25354.21155878 .00000174 00000+0 00000+0 0 9998 2 38778 0.0621 256.1035 0003829 349.6730 307.6169 1.00272566 39340
UTC large
Height (km)
Speed (km/s)
/
Latitude / Longitude
Inclination (degrees)
Orbital Period (minutes)
Azimuth
Elevation
Range (km)
Doppler Factor

Next 0 passes for location: London (51.5072 / 0.1276)

Sorry there are no passes over London.